WE8M Weather Reports


time (UTC)temp
F
wind
direction
speed
knots
gust
knots
rain 1hr
in
rain 24hr
in
rain mn
in
humidity
%
barometer
mb
20260508200309 71 260 7.0 12.2 0.00 0.00 0.00 40 1010.9
20260508195805 71 225 8.7 14.8 0.00 0.00 0.00 42 1011.0
20260508195305 70 221 7.0 9.6 0.00 0.00 0.00 40 1011.0
20260508194758 71 189 8.7 12.2 0.00 0.00 0.00 41 1010.8
20260508194255 71 229 5.2 8.7 0.00 0.00 0.00 37 1011.1
20260508193753 70 245 9.6 12.2 0.00 0.00 0.00 40 1011.3
20260508193249 69 241 5.2 9.6 0.00 0.00 0.00 45 1011.5
20260508192745 69 223 13.0 14.8 0.00 0.00 0.00 39 1011.6
20260508192242 70 184 8.7 16.5 0.00 0.00 0.00 40 1011.4
20260508191740 70 202 7.8 13.0 0.00 0.00 0.00 37 1011.8
20260508191237 70 180 7.0 11.3 0.00 0.00 0.00 43 1011.7
20260508190734 69 213 7.8 12.2 0.00 0.00 0.00 41 1011.6
20260508190230 70 215 9.6 12.2 0.00 0.00 0.00 42 1012.0
20260508185727 71 187 8.7 9.6 0.00 0.00 0.00 38 1012.0
20260508185224 72 216 6.1 8.7 0.00 0.00 0.00 39 1012.1
20260508184721 71 218 7.8 8.7 0.00 0.00 0.00 40 1012.1
20260508184218 71 240 5.2 13.0 0.00 0.00 0.00 41 1012.3
20260508183715 71 206 5.2 7.8 0.00 0.00 0.00 41 1012.3
20260508183211 69 224 3.5 7.0 0.00 0.00 0.00 43 1012.4
20260508182707 69 250 5.2 8.7 0.00 0.00 0.00 42 1012.4
20260508182204 68 180 7.0 8.7 0.00 0.00 0.00 44 1012.7
20260508181700 68 227 4.3 7.0 0.00 0.00 0.00 44 1012.7
20260508181157 68 209 7.0 7.8 0.00 0.00 0.00 41 1012.7
20260508180654 68 237 8.7 11.3 0.00 0.00 0.00 41 1012.8
20260508180151 68 225 4.3 9.6 0.00 0.00 0.00 46 1012.8
20260508175647 69 217 7.0 9.6 0.00 0.00 0.00 40 1013.0
20260508175144 69 273 1.7 9.6 0.00 0.00 0.00 44 1012.9
20260508174642 69 200 5.2 11.3 0.00 0.00 0.00 43 1013.1
20260508174138 69 190 7.0 11.3 0.00 0.00 0.00 40 1013.2
20260508173635 68 216 5.2 8.7 0.00 0.00 0.00 45 1013.3
20260508173131 68 227 7.0 14.8 0.00 0.00 0.00 42 1013.6
20260508172628 67 213 9.6 13.0 0.00 0.00 0.00 42 1013.6
20260508172125 67 230 9.6 11.3 0.00 0.00 0.00 42 1013.7
20260508171621 67 210 6.1 8.7 0.00 0.00 0.00 43 1013.9
20260508171118 67 233 8.7 13.0 0.00 0.00 0.00 42 1014.0
20260508170615 67 217 8.7 18.2 0.00 0.00 0.00 44 1013.9
20260508170113 67 200 7.0 11.3 0.00 0.00 0.00 42 1014.0
20260508165609 67 209 8.7 11.3 0.00 0.00 0.00 44 1014.2
20260508165107 67 189 10.4 13.9 0.00 0.00 0.00 46 1014.1
20260508164603 67 192 7.0 9.6 0.00 0.00 0.00 44 1014.2
20260508164100 67 195 7.8 11.3 0.00 0.00 0.00 44 1014.4
20260508163557 67 206 5.2 9.6 0.00 0.00 0.00 45 1014.3
20260508163054 67 254 6.1 11.3 0.00 0.00 0.00 46 1014.5
20260508162551 67 222 5.2 11.3 0.00 0.00 0.00 46 1014.3
20260508162048 66 218 4.3 7.0 0.00 0.00 0.00 48 1014.5
20260508161545 65 239 5.2 7.8 0.00 0.00 0.00 51 1014.5
20260508161042 65 220 7.0 9.6 0.00 0.00 0.00 47 1014.8
20260508160540 65 196 5.2 9.6 0.00 0.00 0.00 50 1014.4
20260508160037 65 196 6.1 11.3 0.00 0.00 0.00 50 1014.6
20260508155534 65 174 6.1 7.8 0.00 0.00 0.00 48 1014.7
20260508155031 65 239 7.8 9.6 0.00 0.00 0.00 47 1014.8
20260508154528 65 209 7.8 11.3 0.00 0.00 0.00 45 1014.9
20260508154025 65 195 5.2 9.6 0.00 0.00 0.00 48 1015.0
20260508153522 65 247 7.8 12.2 0.00 0.00 0.00 46 1015.1
20260508153018 65 215 7.0 11.3 0.00 0.00 0.00 47 1015.1
20260508152515 64 209 4.3 7.0 0.00 0.00 0.00 49 1015.2
20260508152011 64 220 8.7 11.3 0.00 0.00 0.00 47 1015.3
20260508151508 64 231 5.2 8.7 0.00 0.00 0.00 49 1015.2
20260508151004 63 240 9.6 11.3 0.00 0.00 0.00 47 1015.2
20260508150501 62 225 7.8 12.2 0.00 0.00 0.00 47 1015.2
20260508145956 63 280 10.4 13.0 0.00 0.00 0.00 47 1015.3
20260508145454 62 218 7.0 12.2 0.00 0.00 0.00 47 1015.4
20260508144950 62 254 5.2 8.7 0.00 0.00 0.00 48 1015.4
20260508144448 62 235 10.4 13.0 0.00 0.00 0.00 46 1015.5
20260508143945 62 255 7.8 12.2 0.00 0.00 0.00 46 1015.4
20260508143443 62 211 7.0 11.3 0.00 0.00 0.00 47 1015.4
20260508142939 61 246 5.2 12.2 0.00 0.00 0.00 52 1015.3
20260508142436 61 213 6.1 11.3 0.00 0.00 0.00 51 1015.3
20260508141932 61 233 5.2 7.8 0.00 0.00 0.00 51 1015.5
20260508141429 60 222 6.1 7.8 0.00 0.00 0.00 51 1015.6
20260508140927 60 210 5.2 12.2 0.00 0.00 0.00 52 1015.7
20260508140424 59 227 5.2 7.0 0.00 0.00 0.00 53 1015.4
20260508135919 58 213 5.2 7.8 0.00 0.00 0.00 53 1015.6
20260508135417 58 222 5.2 7.0 0.00 0.00 0.00 55 1015.6
20260508134913 57 198 3.5 6.1 0.00 0.00 0.00 58 1015.5
20260508134409 56 208 3.5 6.1 0.00 0.00 0.00 58 1015.5
20260508133906 55 215 2.6 7.0 0.00 0.00 0.00 60 1015.6
20260508133404 53 202 3.5 6.1 0.00 0.00 0.00 61 1015.9
20260508132900 53 207 2.6 7.0 0.00 0.00 0.00 62 1015.9
20260508132359 53 218 3.5 6.1 0.00 0.00 0.00 63 1015.6
20260508131855 53 212 4.3 7.8 0.00 0.00 0.00 62 1015.6
20260508131350 53 214 3.5 7.0 0.00 0.00 0.00 63 1015.7
20260508130847 53 205 3.5 8.7 0.00 0.00 0.00 63 1015.9
20260508130344 52 209 5.2 7.0 0.00 0.00 0.00 64 1015.6
20260508125840 51 214 3.5 5.2 0.00 0.00 0.00 64 1015.9
20260508125336 51 214 3.5 6.1 0.00 0.00 0.00 63 1015.6
20260508124834 51 221 3.5 5.2 0.00 0.00 0.00 66 1015.6
20260508124331 50 193 5.2 6.1 0.00 0.00 0.00 65 1015.7
20260508123829 50 222 3.5 5.2 0.00 0.00 0.00 66 1015.7
20260508123328 49 191 2.6 5.2 0.00 0.00 0.00 66 1015.4
20260508122824 49 213 3.5 7.8 0.00 0.00 0.00 66 1015.3
20260508122321 49 214 3.5 7.0 0.00 0.00 0.00 68 1015.6
20260508121818 48 201 3.5 8.7 0.00 0.00 0.00 68 1015.5
20260508121316 48 212 4.3 6.1 0.00 0.00 0.00 69 1015.6
20260508120813 47 188 4.3 5.2 0.00 0.00 0.00 67 1015.5
20260508120311 47 189 1.7 7.0 0.00 0.00 0.00 66 1015.2
20260508115808 47 207 3.5 3.5 0.00 0.00 0.00 69 1015.3
20260508115306 47 199 4.3 5.2 0.00 0.00 0.00 67 1015.1
20260508114802 47 186 4.3 6.1 0.00 0.00 0.00 66 1015.3
20260508114259 47 197 7.8 8.7 0.00 0.00 0.00 65 1015.3
20260508113755 47 195 2.6 3.5 0.00 0.00 0.00 68 1015.1
20260508113254 46 209 2.6 6.1 0.00 0.00 0.00 67 1015.3
20260508112750 46 240 4.3 6.1 0.00 0.00 0.00 67 1015.2
20260508112247 46 194 2.6 5.2 0.00 0.00 0.00 70 1015.1
20260508111743 46 178 3.5 5.2 0.00 0.00 0.00 69 1015.1
20260508111241 46 181 3.5 5.2 0.00 0.00 0.00 68 1015.1
20260508110738 46 186 2.6 5.2 0.00 0.00 0.00 69 1015.1
20260508110236 46 195 2.6 3.5 0.00 0.00 0.00 69 1015.2
20260508105735 46 181 1.7 2.6 0.00 0.00 0.00 68 1015.0
20260508105233 46 205 0.9 2.6 0.00 0.00 0.00 69 1015.1
20260508104730 45 182 2.6 3.5 0.00 0.00 0.00 69 1014.9
20260508104227 45 179 3.5 5.2 0.00 0.00 0.00 68 1014.8
20260508103724 45 188 2.6 5.2 0.00 0.00 0.00 69 1014.9
20260508103221 45 207 3.5 3.5 0.00 0.00 0.00 69 1014.5
20260508102718 44 185 2.6 5.2 0.00 0.00 0.00 69 1014.9
20260508102216 44 209 3.5 5.2 0.00 0.00 0.00 69 1014.8
20260508101713 44 194 2.6 3.5 0.00 0.00 0.00 69 1014.8
20260508101211 44 207 2.6 3.5 0.00 0.00 0.00 70 1014.8
20260508100708 44 166 1.7 3.5 0.00 0.00 0.00 69 1014.8
20260508100206 44 202 3.5 5.2 0.00 0.00 0.00 69 1014.7
20260508095701 44 200 3.5 5.2 0.00 0.00 0.00 68 1014.9
20260508095159 45 174 3.5 3.5 0.00 0.00 0.00 68 1014.8
20260508094655 45 193 2.6 3.5 0.00 0.00 0.00 67 1014.8
20260508094153 45 175 2.6 3.5 0.00 0.00 0.00 68 1015.0
20260508093650 44 172 2.6 3.5 0.00 0.00 0.00 69 1014.6
20260508093148 45 178 2.6 3.5 0.00 0.00 0.00 68 1014.8
20260508092644 44 185 3.5 3.5 0.00 0.00 0.00 68 1014.6
20260508092143 44 179 1.7 2.6 0.00 0.00 0.00 70 1015.0
20260508091640 44 188 1.7 2.6 0.00 0.00 0.00 71 1014.9
20260508091137 45 190 2.6 3.5 0.00 0.00 0.00 69 1014.9
20260508090635 45 196 0.9 3.5 0.00 0.00 0.00 68 1014.7
20260508090132 45 200 3.5 5.2 0.00 0.00 0.00 67 1014.8
20260508085628 45 195 2.6 5.2 0.00 0.00 0.00 66 1014.8
20260508085126 45 192 2.6 3.5 0.00 0.00 0.00 67 1014.6
20260508084621 45 174 1.7 2.6 0.00 0.00 0.00 67 1014.8
20260508084119 45 166 1.7 2.6 0.00 0.00 0.00 67 1014.8
20260508083616 44 177 1.7 2.6 0.00 0.00 0.00 70 1014.7
20260508083113 44 198 1.7 1.7 0.00 0.00 0.00 73 1014.6
20260508082609 44 203 0.9 0.9 0.00 0.00 0.00 74 1014.8
20260508082106 44 197 1.7 2.6 0.00 0.00 0.00 72 1014.6
20260508081604 45 221 1.7 2.6 0.00 0.00 0.00 71 1014.7
20260508081100 45 201 0.9 1.7 0.00 0.00 0.00 69 1014.7
20260508080558 44 187 1.7 2.6 0.00 0.00 0.00 71 1014.6
20260508080055 44 225 1.7 2.6 0.00 0.00 0.00 71 1014.7
20260508075551 44 216 0.9 2.6 0.00 0.00 0.00 72 1014.6
20260508075049 45 198 1.7 2.6 0.00 0.00 0.00 72 1014.7
20260508074546 45 211 2.6 3.5 0.00 0.00 0.00 69 1014.5
20260508074043 44 198 0.9 1.7 0.00 0.00 0.00 70 1014.6
20260508073540 44 204 1.7 3.5 0.00 0.00 0.00 73 1014.6
20260508073038 45 204 2.6 2.6 0.00 0.00 0.00 73 1014.7
20260508072533 45 202 1.7 2.6 0.00 0.00 0.00 71 1014.6
20260508072031 45 200 1.7 2.6 0.00 0.00 0.00 72 1014.8
20260508071528 45 214 1.7 1.7 0.00 0.00 0.00 73 1014.7
20260508071026 44 203 1.7 2.6 0.00 0.00 0.00 73 1014.8
20260508070524 44 207 1.7 1.7 0.00 0.00 0.00 74 1014.7
20260508070022 44 206 1.7 1.7 0.00 0.00 0.00 74 1014.8
20260508065519 44 206 0.9 1.7 0.00 0.00 0.00 75 1014.8
20260508065017 44 207 0.9 1.7 0.00 0.00 0.00 75 1014.8
20260508064514 44 211 0.9 1.7 0.00 0.00 0.00 73 1014.8
20260508064012 44 203 1.7 1.7 0.00 0.00 0.00 76 1014.8
20260508063509 44 195 1.7 1.7 0.00 0.00 0.00 77 1015.1
20260508063007 44 191 0.9 1.7 0.00 0.00 0.00 78 1015.0
20260508062504 44 191 0.9 1.7 0.00 0.00 0.00 76 1015.1
20260508062001 44 187 0.9 1.7 0.00 0.00 0.00 76 1015.1
20260508061459 44 187 0.9 0.9 0.00 0.00 0.00 75 1015.3
20260508060955 45 187 0.9 1.7 0.00 0.00 0.00 74 1015.3
20260508060452 45 186 0.0 0.9 0.00 0.00 0.00 75 1015.1
20260508055948 45 180 0.9 1.7 0.00 0.00 0.00 70 1015.1
20260508055446 45 174 0.9 1.7 0.00 0.00 0.00 69 1014.9
20260508054942 45 173 0.9 1.7 0.00 0.00 0.00 71 1015.0
20260508054439 45 172 0.9 1.7 0.00 0.00 0.00 71 1015.2
20260508053936 45 172 0.9 0.9 0.00 0.00 0.00 71 1015.1
20260508053433 46 172 0.9 0.9 0.00 0.00 0.00 70 1015.1
20260508052931 46 172 0.9 1.7 0.00 0.00 0.00 66 1015.0
20260508052428 46 173 0.9 1.7 0.00 0.00 0.00 67 1015.0
20260508051924 46 173 0.9 0.9 0.00 0.00 0.00 68 1015.1
20260508051420 46 173 0.9 1.7 0.00 0.00 0.00 67 1015.2
20260508050916 46 182 1.7 2.6 0.00 0.00 0.00 67 1015.2
20260508050413 46 212 0.9 1.7 0.00 0.00 0.00 69 1015.2
20260508045909 47 198 1.7 1.7 0.00 0.00 0.00 66 1015.0
20260508045407 47 170 0.9 1.7 0.00 0.00 0.00 64 1015.1
20260508044904 48 194 1.7 1.7 0.00 0.00 0.00 63 1015.2
20260508044401 47 200 2.6 2.6 0.00 0.00 0.00 61 1015.0
20260508043856 47 156 3.5 3.5 0.00 0.00 0.00 63 1015.0
20260508043354 48 181 1.7 2.6 0.00 0.00 0.00 63 1015.2
20260508042850 47 182 1.7 2.6 0.00 0.00 0.00 63 1015.1
20260508042348 47 179 0.9 2.6 0.00 0.00 0.00 64 1014.9
20260508041845 46 201 0.9 1.7 0.00 0.00 0.00 70 1015.0
20260508041341 46 197 0.9 1.7 0.00 0.00 0.00 70 1015.3
20260508040838 47 195 0.9 1.7 0.00 0.00 0.00 68 1015.2
20260508040335 47 195 1.7 1.7 0.00 0.00 0.00 68 1015.0
20260508035833 47 206 1.7 1.7 0.00 0.00 0.00 67 1015.1
20260508035330 48 197 0.9 1.7 0.00 0.00 0.00 66 1015.1
20260508034827 47 180 1.7 2.6 0.00 0.00 0.00 64 1015.0
20260508034324 47 178 1.7 2.6 0.00 0.00 0.00 65 1015.1
20260508033821 46 190 1.7 2.6 0.00 0.00 0.00 69 1015.1
20260508033319 47 204 0.9 1.7 0.00 0.00 0.00 69 1015.3
20260508032816 48 184 1.7 1.7 0.00 0.00 0.00 67 1015.2
20260508032313 47 189 0.9 1.7 0.00 0.00 0.00 65 1015.2
20260508031810 47 165 1.7 2.6 0.00 0.00 0.00 65 1015.2
20260508031307 47 182 0.9 1.7 0.00 0.00 0.00 68 1015.1
20260508030803 46 155 0.9 0.9 0.00 0.00 0.00 69 1015.0
20260508030300 47 167 0.9 0.9 0.00 0.00 0.00 69 1015.1
20260508025757 47 163 0.9 0.9 0.00 0.00 0.00 68 1015.1
20260508025254 47 159 0.9 0.9 0.00 0.00 0.00 69 1015.1
20260508024750 47 159 0.9 0.9 0.00 0.00 0.00 68 1015.1
20260508024247 46 212 0.9 1.7 0.00 0.00 0.00 70 1014.9
20260508023744 46 252 0.9 0.9 0.00 0.00 0.00 73 1015.1
20260508023241 44 281 0.0 0.9 0.00 0.00 0.00 83 1015.1
20260508022737 44 288 0.0 0.0 0.00 0.00 0.00 89 1015.0
20260508022234 44 288 0.0 0.0 0.00 0.00 0.00 87 1015.0
20260508021731 44 288 0.0 0.0 0.00 0.00 0.00 87 1015.3
20260508021226 44 288 0.0 0.0 0.00 0.00 0.00 84 1015.1
20260508020723 44 288 0.0 0.0 0.00 0.00 0.00 84 1015.2
20260508020220 45 288 0.0 0.0 0.00 0.00 0.00 84 1014.9
20260508015718 45 288 0.0 0.0 0.00 0.00 0.00 82 1014.9
20260508015215 46 288 0.0 0.0 0.00 0.00 0.00 82 1014.8
20260508014711 46 288 0.0 0.0 0.00 0.00 0.00 80 1015.0
20260508014208 46 288 0.0 0.0 0.00 0.00 0.00 75 1015.0
20260508013704 46 288 0.0 0.0 0.00 0.00 0.00 75 1015.0
20260508013200 47 288 0.0 0.0 0.00 0.00 0.00 75 1014.9
20260508012658 47 288 0.0 0.0 0.00 0.00 0.00 77 1014.6
20260508012155 47 288 0.0 0.0 0.00 0.00 0.00 76 1015.2
20260508011653 48 288 0.0 0.0 0.00 0.00 0.00 76 1014.7
20260508011150 48 288 0.0 0.0 0.00 0.00 0.00 81 1014.7
20260508010647 49 288 0.0 0.0 0.00 0.00 0.00 79 1015.0
20260508010145 49 287 0.0 0.0 0.00 0.00 0.00 74 1014.7
20260508005642 50 288 0.0 0.0 0.00 0.00 0.00 69 1014.7
20260508005138 50 287 0.0 0.0 0.00 0.00 0.00 66 1014.8
20260508004634 50 288 0.0 0.0 0.00 0.00 0.00 61 1014.6
20260508004131 51 290 0.0 0.0 0.00 0.00 0.00 59 1014.7
20260508003627 51 290 0.0 0.0 0.00 0.00 0.00 57 1014.6
20260508003125 51 289 0.9 0.9 0.00 0.00 0.00 57 1014.6
20260508002621 52 290 0.0 0.9 0.00 0.00 0.00 54 1014.6
20260508002119 53 291 0.0 0.0 0.00 0.00 0.00 53 1014.6
20260508001614 53 296 0.0 0.0 0.00 0.00 0.00 53 1014.5
20260508001110 54 296 0.0 0.9 0.00 0.00 0.00 55 1014.5
20260508000606 55 298 0.0 0.0 0.00 0.00 0.00 48 1014.4
20260508000104 55 311 0.0 0.9 0.00 0.00 0.00 41 1014.4
20260507235600 56 333 0.0 0.9 0.00 0.00 0.00 42 1014.2
20260507235058 56 327 0.9 1.7 0.00 0.00 0.00 41 1014.2
20260507234554 56 318 0.9 0.9 0.00 0.00 0.00 40 1014.1
20260507234051 57 320 0.0 0.9 0.00 0.00 0.00 39 1014.3
20260507233547 58 326 1.7 2.6 0.00 0.00 0.00 39 1014.1
20260507233047 59 332 1.7 1.7 0.00 0.00 0.00 36 1014.1
20260507232542 59 335 0.9 1.7 0.00 0.00 0.00 37 1013.9
20260507232039 59 337 0.0 2.6 0.00 0.00 0.00 35 1014.2
20260507231536 59 302 0.0 1.7 0.00 0.00 0.00 35 1014.3
20260507231034 58 333 1.7 5.2 0.00 0.00 0.00 36 1014.4
20260507230530 59 310 1.7 2.6 0.00 0.00 0.00 38 1014.3
20260507230027 59 227 0.9 1.7 0.00 0.00 0.00 38 1014.4
20260507225521 59 311 0.9 3.5 0.00 0.00 0.00 36 1014.1
20260507225018 58 358 0.9 3.5 0.00 0.00 0.00 37 1014.2
20260507224514 58 253 0.9 5.2 0.00 0.00 0.00 41 1014.3
20260507224010 58 330 0.9 6.1 0.00 0.00 0.00 37 1014.2
20260507223507 58 312 4.3 6.1 0.00 0.00 0.00 37 1014.2
20260507223004 58 298 2.6 7.0 0.00 0.00 0.00 38 1014.3
20260507222501 58 350 5.2 7.8 0.00 0.00 0.00 36 1014.4
20260507221957 59 330 3.5 8.7 0.00 0.00 0.00 39 1014.5
20260507221454 59 11 5.2 7.8 0.00 0.00 0.00 42 1014.3
20260507220950 59 272 0.9 6.1 0.00 0.00 0.00 41 1014.5
20260507220448 59 268 3.5 6.1 0.00 0.00 0.00 38 1014.4
20260507215944 59 279 6.1 8.7 0.00 0.00 0.00 40 1014.3
20260507215441 60 331 4.3 9.6 0.00 0.00 0.00 37 1014.3
20260507214938 59 341 0.9 5.2 0.00 0.00 0.00 39 1014.3
20260507214436 59 328 4.3 7.0 0.00 0.00 0.00 39 1014.3
20260507213931 59 339 1.7 2.6 0.00 0.00 0.00 38 1014.4
20260507213428 59 357 2.6 7.0 0.00 0.00 0.00 38 1014.2
20260507212925 59 312 4.3 7.0 0.00 0.00 0.00 36 1014.2
20260507212421 59 5 2.6 6.1 0.00 0.00 0.00 42 1014.2
20260507211918 60 307 5.2 8.7 0.00 0.00 0.00 39 1014.1
20260507211414 60 258 0.0 1.7 0.00 0.00 0.00 38 1014.1
20260507210911 60 345 1.7 7.8 0.00 0.00 0.00 37 1014.3
20260507210408 60 314 6.1 9.6 0.00 0.00 0.00 38 1014.1
20260507205905 62 5 0.0 2.6 0.00 0.00 0.00 39 1014.1
20260507205402 62 344 0.9 1.7 0.00 0.00 0.00 34 1014.2
20260507204858 61 50 0.0 1.7 0.00 0.00 0.00 44 1014.0
20260507204355 60 343 3.5 5.2 0.00 0.00 0.00 47 1014.0
20260507203853 60 328 6.1 7.8 0.00 0.00 0.00 40 1014.2
20260507203350 60 62 1.7 5.2 0.00 0.00 0.00 43 1013.9
20260507202846 59 319 6.1 8.7 0.00 0.00 0.00 40 1014.0
20260507202343 60 14 7.0 11.3 0.00 0.00 0.00 36 1013.9
20260507201838 59 205 0.9 9.6 0.00 0.00 0.00 43 1013.8
20260507201334 60 161 2.6 8.7 0.00 0.00 0.00 38 1014.0
20260507200831 59 242 3.5 7.0 0.00 0.00 0.00 38 1013.9